Regional Weather Roundup
Issued by NWS

Home | Current Version | Previous Version | Text Only | Print | Product List | Glossary On
Versions: 1 2 3 4 5 6 7 8 9 10 11 12 13 14 15 16 17 18 19 20 21 22 23 24 25 26 27 28 29 30 31 32 33 34 35 36 37 38 39 40 41 42 43 44 45 46 47 48 49 50
000
ASUS45 KBOU 241210
RWRCO

WEATHER ROUNDUP FOR COLORADO
NATIONAL WEATHER SERVICE DENVER/BOULDER CO
500 AM MST FRI JAN 24 2020

NOTE: "FAIR" INDICATES FEW OR NO CLOUDS BELOW 12000 FEET WITH NO
SIGNIFICANT WEATHER AND/OR OBSTRUCTIONS TO VISIBILITY.

COZ001>005-013-030-031-241300-
...NORTHWEST COLORADO...

CITY           SKY/WX    TMP DP  RH WIND       PRES   REMARKS
CRAIG          FOG       16  15  96 CALM      30.15F VSB 1/4
HAYDEN         CLOUDY    27  25  92 NE5       30.16F WCI  22
MEEKER         MOCLDY    16  12  84 CALM      30.15F
RANGELY        FOG      N/A N/A N/A CALM      30.22S VSB 3/4
RABBIT EARS PA FOG      N/A N/A N/A W8        30.12S VSB 1
STEAMBOAT SPGS CLOUDY    27  27 100 SE3       30.13F
WALDEN         NOT AVBL
$$

COZ006>008-011-241300-
...WEST CENTRAL VALLEYS...

CITY           SKY/WX    TMP DP  RH WIND       PRES   REMARKS
GRAND JUNCTION CLOUDY    31  28  89 E6        30.20F WCI  25
MONTROSE       FOG       27  26  96 S5        30.23S VSB 1/4 WCI  22
EAGLE          CLOUDY    24  21  88 E6        30.20F WCI  17
RIFLE          CLOUDY    29  27  92 W6        30.19S FOG     WCI  23
DELTA          CLOUDY    32  31  96 CALM      30.23S VSB 1/2
NUCLA          FOG       21  19  93 CALM      30.22F VSB 1/4
$$

COZ017>023-064>068-241300-
...SOUTHWEST COLORADO...

CITY           SKY/WX    TMP DP  RH WIND       PRES   REMARKS
DURANGO        FAIR      18  16  92 CALM      30.15R
CORTEZ         FAIR      22  19  89 E5        30.16S WCI  16
PAGOSA SPRINGS FAIR     N/A N/A N/A CALM      30.15R
TELLURIDE      FAIR      19  14  79 CALM      30.19S
WOLF CREEK PAS FAIR      19   1  45 SW10      30.19S WCI   8
$$

COZ009-010-012-014-032>034-037-058>063-241300-
...CENTRAL COLORADO...

CITY           SKY/WX    TMP DP  RH WIND       PRES   REMARKS
ASPEN          CLOUDY    25  19  78 SW7       30.17R WCI  17
BUENA VISTA    FAIR      17  10  74 CALM      30.13S
COPPER MTN     CLOUDY    18  12  79 W12G20    30.12S WCI   5
BERTHOUD PASS  CLOUDY    10  -4  52 MISG      30.07R
DAKOTA HILL    CLOUDY    14  12  92 NW20G38   30.02F WCI  -3
COTTONWOOD PAS FAIR      23  12  63 W5        30.11S WCI  17
GUNNISON       FAIR       1  -2  87 CALM      30.23R
GRANBY         CLOUDY    25  21  85 CALM      30.16R
KREMMLING      CLOUDY    21  19  93 CALM      30.17S
LEADVILLE      CLOUDY    14   9  80 N7        30.13R WCI   4
MONARCH PASS   CLOUDY    12   9  85 MISG      30.21F
SALIDA           N/A     28  14  57 NW9       30.20F WCI  19
SUNLIGHT       NOT AVBL
WILKERSON PASS FAIR      18   9  68 N14G23    30.09F WCI   4
$$

COZ069>075-241300-
...SAN LUIS VALLEY/SANGRE DE CRISTO MOUNTAINS...

CITY           SKY/WX    TMP DP  RH WIND       PRES   REMARKS
ALAMOSA        FAIR       7   2  80 CALM      30.15R
DEL NORTE      FAIR      15   6  68 W15       30.15S WCI   0
LA VETA PASS   FAIR      16  12  86 W14       30.07F WCI   1
SAGUACHE       FAIR      23  14  68 NW17      30.15S WCI   9
$$

COZ035-036-038>040-241300-
...NORTHERN COLORADO FRONT RANGE...

CITY           SKY/WX    TMP DP  RH WIND       PRES   REMARKS
DENVER INTL AP FAIR      26  14  60 S12       30.01F WCI  16
AURORA         CLEAR     24  13  65 S8        30.02F WCI  14
FRONT RANGE AP FAIR      28  18  65 S9        30.02F WCI  19
ERIE MUNI ARPT FAIR      18  14  86 CALM      30.09S
BOULDER MUN AP FAIR      28  16  59 CALM      30.03S
CENTENNIAL     FAIR      32  13  45 SW7       30.01F WCI  26
BROOMFIELD     FAIR      27  16  63 CALM      30.02S
FORT COLLINS   FAIR      25  18  74 NE6       30.05S WCI  18
LONGMONT       FAIR      23  15  73 W3        30.06S
$$

COZ041-046-047-076>085-087-088-241300-
...PIKES PEAK/PALMER DIVIDE AND SOUTHERN FOOTHILLS...

CITY           SKY/WX    TMP DP  RH WIND       PRES   REMARKS
COLO. SPRINGS  FAIR      21  10  62 N7        30.04F WCI  12
A. F. ACADEMY  FAIR      14   9  80 NE9       30.01F WCI   2
SCHRIEVER AFB  NOT AVBL
CHEYENNE MTN   CLEAR     33   9  36 CALM      30.00S
ELLICOTT       FAIR      17   9  71 CALM      30.06F
FALCON         FAIR      28  10  48 NW9       30.04S WCI  19
FORT CARSON    FAIR      21  12  67 NW9       30.03F WCI  11
LIMON          CLOUDY    26  14  60 CALM      30.04F
MONUMENT HILL  FAIR      27  12  54 SW8       30.04S WCI  18
CANON CITY     NOT AVBL
WALSENBURG     NOT AVBL
TRINIDAD       FAIR      25  16  68 W15       30.07F WCI  13
$$

COZ042>045-048>051-090-091-241300-
...NORTHEAST COLORADO...

CITY           SKY/WX    TMP DP  RH WIND       PRES   REMARKS
GREELEY ARPT   FAIR      24  22  91 N3        30.06F
AKRON          MOCLDY    28  16  60 SW9       30.03F WCI  19
BURLINGTON     MOCLDY    25  15  66 W6        30.05F WCI  18
WRAY           MOCLDY    21  18  86 W5        30.06S WCI  15
YUMA           NOT AVBL
STERLING       CLOUDY    28  19  69 SW3       30.03F
HOLYOKE        FAIR      21  18  86 W7        30.05F WCI  13
FORT MORGAN    CLOUDY    29  17  60 W5        30.05S WCI  24
$$

COZ086-089-092>099-241300-
...SOUTHEAST COLORADO...

CITY           SKY/WX    TMP DP  RH WIND       PRES   REMARKS
PUEBLO         FAIR      17   9  70 CALM      30.06F
LA JUNTA       FAIR      15   8  73 W9        30.10R WCI   3
LAMAR          CLOUDY    28  13  53 W12       30.08S WCI  18
SPRINGFIELD      N/A     19  11  70 SW5       30.07F WCI  12
$$



USA.gov is the U.S. government's official web portal to all federal, state and local government web resources and services.